Pellston, MI

2:35 PM EDT on June 28, 2017 (GMT -0400)
Pellston Regional Airport Of Emmet County

Weather History for KPLN - July, 2013

Change the Weather History Date:

Tuesday, July 2, 2013

  Actual Average Record
Temperature  
Mean Temperature 56 °F -  
Max Temperature 73 °F 77 °F 93 °F (1966)
Min Temperature 39 °F 51 °F 30 °F (2001)
Degree Days  
Heating Degree Days 9    
Growing Degree Days 6 (Base 50)    
Moisture  
Dew Point 41 °F    
Average Humidity 60    
Maximum Humidity 93    
Minimum Humidity 24    
Precipitation  
Precipitation 0.00 in - - ()
Sea Level Pressure  
Sea Level Pressure 30.16 in    
Wind  
Wind Speed 4 mph (NE)    
Max Wind Speed 13 mph    
Max Gust Speed -    
Visibility 10 miles    
Events      
Averages and records for this station are not official NWS values.
T = Trace of Precipitation, MM = Missing Value Source: NWS Daily Summary

Daily Weather History Graph

Daily Weather History Graph

Search for Another Location

Airport or City:

Trip Planner

Search our weather history database for the weather conditions in past years. The results will help you decide how hot, cold, wet, or windy it might be!

Date:

Astronomy

Jul. 02, 2013 Rise Set
Actual Time 5:54 AM EDT 9:31 PM EDT
Civil Twilight 5:17 AM EDT 10:09 PM EDT
Nautical Twilight 4:26 AM EDT 10:59 PM EDT
Astronomical Twilight 3:19 AM EDT 12:06 AM EDT
Moon 2:05 AM EDT (7/2) 4:37 PM EDT (7/2)
Length of Visible Light 16h 52m
Length of Day
15h 36m
Waning Crescent, 26% of the Moon is Illuminated
Jul 2
Waning Crescent
Jul 8
New
Jul 15
First Quarter
Jul 22
Full
Jul 29
Last Quarter

Hourly Weather History & Observations

Time (EDT) Temp. Windchill Dew Point Humidity Pressure Visibility Wind Dir Wind Speed Gust Speed Precip Events Conditions
12:54 AM 44.1 °F 42.5 °F 42.1 °F 93% 30.19 in 10.0 mi NW 3.5 mph - N/A   Clear
1:54 AM 42.1 °F - 39.9 °F 92% 30.19 in 10.0 mi Calm Calm - N/A   Clear
2:54 AM 42.1 °F 40.2 °F 39.9 °F 92% 30.18 in 10.0 mi NW 3.5 mph - N/A   Clear
3:54 AM 41.0 °F 38.0 °F 39.0 °F 93% 30.18 in 10.0 mi NW 4.6 mph - N/A   Clear
4:54 AM 39.0 °F - 37.0 °F 93% 30.19 in 10.0 mi Calm Calm - N/A   Clear
5:54 AM 42.1 °F 40.2 °F 39.9 °F 92% 30.19 in 10.0 mi WNW 3.5 mph - N/A   Clear
6:54 AM 45.0 °F - 43.0 °F 93% 30.19 in 10.0 mi Calm Calm - N/A   Clear
7:54 AM 51.1 °F - 48.0 °F 89% 30.19 in 10.0 mi Calm Calm - N/A   Clear
8:54 AM 62.1 °F - 50.0 °F 65% 30.19 in 10.0 mi NNE 6.9 mph - N/A   Clear
10:54 AM 69.1 °F - 44.1 °F 40% 30.18 in 10.0 mi ENE 10.4 mph - N/A   Clear
11:54 AM 70.0 °F - 39.9 °F 33% 30.17 in 10.0 mi ENE 9.2 mph - N/A   Clear
12:54 PM 72.0 °F - 39.0 °F 30% 30.17 in 10.0 mi ENE 6.9 mph - N/A   Clear
1:54 PM 70.0 °F - 37.9 °F 31% 30.17 in 10.0 mi NE 12.7 mph - N/A   Partly Cloudy
2:54 PM 71.1 °F - 37.9 °F 30% 30.16 in 10.0 mi ENE 11.5 mph - N/A   Mostly Cloudy
3:54 PM 70.0 °F - 37.0 °F 30% 30.16 in 10.0 mi East 8.1 mph - N/A   Mostly Cloudy
4:54 PM 71.1 °F - 39.9 °F 32% 30.14 in 10.0 mi East 8.1 mph - N/A   Mostly Cloudy
5:54 PM 73.0 °F - 34.0 °F 24% 30.12 in 10.0 mi ENE 5.8 mph - N/A   Clear
6:54 PM 72.0 °F - 35.1 °F 26% 30.12 in 10.0 mi ESE 3.5 mph - N/A   Partly Cloudy
7:54 PM 70.0 °F - 37.9 °F 31% 30.12 in 10.0 mi SE 5.8 mph - N/A   Partly Cloudy
8:54 PM 64.0 °F - 43.0 °F 46% 30.12 in 10.0 mi Calm Calm - N/A   Overcast
9:54 PM 57.0 °F - 46.9 °F 69% 30.12 in 10.0 mi Calm Calm - N/A   Mostly Cloudy
10:54 PM 57.0 °F - 48.0 °F 72% 30.13 in 10.0 mi Calm Calm - N/A   Overcast
11:54 PM 54.0 °F - 48.0 °F 80% 30.12 in 10.0 mi Calm Calm - N/A   Clear